Binghamton, NY

11:10 PM EDT on June 22, 2017 (GMT -0400)
Binghamton Regional-Link

Weather History for KBGM - March, 2014

Change the Weather History Date:

Wednesday, March 5, 2014

  Actual Average Record
Temperature  
Mean Temperature 15 °F 29 °F  
Max Temperature 22 °F 37 °F 67 °F (1976)
Min Temperature 7 °F 21 °F 2 °F (2017)
Degree Days  
Heating Degree Days 50 36  
Month to date heating degree days 255 183  
Since 1 July heating degree days 5726 5382  
Cooling Degree Days 0 0  
Month to date cooling degree days 0 0  
Year to date cooling degree days 0 0  
Moisture  
Dew Point 9 °F    
Average Humidity 71    
Maximum Humidity 80    
Minimum Humidity 61    
Precipitation  
Precipitation T in 0.08 in 1.41 in (1979)
Month to date precipitation 0.03 0.42  
Year to date precipitation 5.72 5.18  
Snow  
Snow T in 0.60 in 9.70 in (2001)
Month to date snowfall 0.3 3.1  
Since 1 July snowfall 82.8 67.0  
Snow Depth 5.00 in    
Sea Level Pressure  
Sea Level Pressure 30.30 in    
Wind  
Wind Speed 8 mph (North)    
Max Wind Speed 17 mph    
Max Gust Speed 23 mph    
Visibility 10 miles    
Events Snow    
T = Trace of Precipitation, MM = Missing Value Source: NWS Daily Summary

Daily Weather History Graph

Daily Weather History Graph

Search for Another Location

Airport or City:

Trip Planner

Search our weather history database for the weather conditions in past years. The results will help you decide how hot, cold, wet, or windy it might be!

Date:

Astronomy

Mar. 05, 2014 Rise Set
Actual Time 6:32 AM EST 5:58 PM EST
Civil Twilight 6:04 AM EST 6:26 PM EST
Nautical Twilight 5:32 AM EST 6:59 PM EST
Astronomical Twilight 4:59 AM EST 7:31 PM EST
Moon 8:51 AM EST (3/5) 11:11 PM EST (3/5)
Length of Visible Light 12h 22m
Length of Day
11h 26m
Waxing Crescent, 23% of the Moon is Illuminated
Mar 5
Waxing Crescent
Mar 8
First Quarter
Mar 16
Full
Mar 23
Last Quarter
Mar 30
New

Hourly Weather History & Observations

Time (EST) Temp. Windchill Dew Point Humidity Pressure Visibility Wind Dir Wind Speed Gust Speed Precip Events Conditions
12:53 AM 16.0 °F 8.8 °F 10.9 °F 81% 30.20 in 10.0 mi NE 4.6 mph - N/A   Overcast
1:53 AM 16.0 °F 8.8 °F 10.9 °F 81% 30.19 in 10.0 mi ENE 4.6 mph - N/A   Overcast
2:53 AM 16.0 °F - 10.9 °F 81% 30.19 in 10.0 mi Calm Calm - N/A   Overcast
3:53 AM 16.0 °F 8.8 °F 10.9 °F 81% 30.18 in 10.0 mi NE 4.6 mph - N/A   Overcast
4:53 AM 16.0 °F 8.8 °F 10.9 °F 81% 30.19 in 10.0 mi North 4.6 mph - N/A   Overcast
5:53 AM 15.1 °F 7.7 °F 10.9 °F 84% 30.21 in 10.0 mi North 4.6 mph - N/A   Overcast
6:53 AM 16.0 °F 8.8 °F 10.9 °F 81% 30.23 in 10.0 mi North 4.6 mph - N/A   Overcast
7:53 AM 17.1 °F 11.7 °F 10.0 °F 74% 30.24 in 10.0 mi NW 3.5 mph - N/A   Overcast
8:53 AM 18.0 °F 9.8 °F 10.0 °F 71% 30.27 in 10.0 mi NNW 5.8 mph - N/A   Overcast
9:53 AM 19.9 °F 12.1 °F 10.9 °F 68% 30.27 in 10.0 mi NNW 5.8 mph - N/A   Overcast
10:53 AM 21.0 °F 12.4 °F 10.9 °F 65% 30.27 in 10.0 mi North 6.9 mph - N/A   Overcast
11:53 AM 21.0 °F 11.4 °F 10.9 °F 65% 30.28 in 10.0 mi North 8.1 mph - N/A   Overcast
12:04 PM 21.2 °F 11.7 °F 10.4 °F 63% 30.20 in 10.0 mi NNW 8.1 mph - N/A   Overcast
12:53 PM 21.0 °F 13.4 °F 10.9 °F 65% 30.29 in 6.0 mi NW 5.8 mph 17.3 mph 0.00 in Snow Light Snow
1:53 PM 21.0 °F 9.9 °F 10.9 °F 65% 30.30 in 10.0 mi NNW 10.4 mph 18.4 mph 0.00 in   Overcast
2:06 PM 21.2 °F 10.1 °F 10.4 °F 63% 30.22 in 10.0 mi NW 10.4 mph - N/A   Overcast
2:42 PM 21.2 °F 8.3 °F 10.4 °F 63% 30.24 in 9.0 mi NNW 13.8 mph - 0.00 in   Overcast
2:53 PM 19.9 °F 8.6 °F 12.0 °F 71% 30.33 in 3.0 mi NNW 10.4 mph - 0.00 in Snow Light Snow
3:08 PM 21.2 °F 9.5 °F 10.4 °F 63% 30.24 in 9.0 mi NNW 11.5 mph - 0.00 in   Overcast
3:39 PM 21.2 °F 8.9 °F 8.6 °F 58% 30.26 in 10.0 mi NW 12.7 mph - 0.00 in   Overcast
3:53 PM 19.9 °F 5.7 °F 8.1 °F 60% 30.35 in 10.0 mi NNW 16.1 mph 21.9 mph 0.00 in   Overcast
4:15 PM 19.4 °F 7.9 °F 8.6 °F 63% 30.27 in 10.0 mi NNW 10.4 mph 19.6 mph N/A   Overcast
4:53 PM 18.0 °F 6.9 °F 6.1 °F 60% 30.38 in 10.0 mi NNW 9.2 mph - N/A   Overcast
5:53 PM 16.0 °F 1.7 °F 6.1 °F 65% 30.41 in 10.0 mi North 13.8 mph - N/A   Mostly Cloudy
6:17 PM 15.8 °F 5.1 °F 5.0 °F 62% 30.33 in 10.0 mi NNW 8.1 mph - N/A   Scattered Clouds
6:53 PM 14.0 °F 1.2 °F 6.1 °F 71% 30.44 in 10.0 mi NNW 10.4 mph - N/A   Clear
7:53 PM 12.9 °F -1.6 °F 7.0 °F 77% 30.46 in 10.0 mi North 12.7 mph - N/A   Clear
8:53 PM 12.0 °F -1.3 °F 5.0 °F 73% 30.48 in 10.0 mi North 10.4 mph - N/A   Clear
9:53 PM 10.0 °F -4.5 °F 3.0 °F 73% 30.50 in 10.0 mi North 11.5 mph - N/A   Clear
10:53 PM 9.0 °F -5.9 °F 1.0 °F 70% 30.51 in 10.0 mi North 11.5 mph - N/A   Clear
11:53 PM 7.0 °F -4.5 °F -0.0 °F 73% 30.52 in 10.0 mi NNE 6.9 mph - N/A   Clear